Regional Weather Roundup
Issued by NWS Kansas City/Pleasant Hill, MO

Home | Current Version | Previous Version | Text Only | Print | Product List | Glossary On
Versions: 1 2 3 4 5 6 7 8 9 10 11 12 13 14 15 16 17 18 19 20 21 22 23 24 25 26 27 28 29 30 31 32 33 34 35 36 37 38 39 40 41 42 43 44 45 46 47 48 49 50
000
ASUS43 KEAX 200710
RWREAX

WEATHER ROUNDUP FOR EASTERN KANSAS AND NORTHWEST MISSOURI
NATIONAL WEATHER SERVICE KANSAS CITY/PLEASANT HILL MO
100 AM CST FRI JAN 20 2017

KSZ040-057-103>105-MOZ028-029-037-043-200800-
...KANSAS CITY METROPOLITAN AREA...

CITY           SKY/WX    TMP DP  RH WIND       PRES   REMARKS
K.C. INTL      FOG       45  43  93 CALM      29.60S VSB 1/4
K.C. DOWNTOWN  CLOUDY    47  46  97 CALM      29.60S FOG
LEES SUMMIT    CLOUDY    46  45  96 E3        29.60F FOG
OLATHE - IXD   CLOUDY    46  45  96 E5        29.60F FOG
OLATHE - OJC   CLOUDY    45  45 100 E5        29.59F FOG
LAWRENCE       CLOUDY    45  45 100 E3        29.60S FOG

$$

MOZ001>008-011>017-020>025-030>033-038>040-044>046-053-054-200800-
...NORTHERN AND CENTRAL MISSOURI...

CITY           SKY/WX    TMP DP  RH WIND       PRES   REMARKS
ST. JOSEPH     FOG       42  42 100 N6        29.60F VSB 1/2
MOSBY          FOG       45  45 100 CALM      29.61S VSB 1/2
WARRENSBURG    FOG       46  45  93 CALM      29.61F VSB 1/4
WHITEMAN AFB   FOG       47  47 100 S3        29.60F VSB 1/2
CLINTON        FOG       46  46 100 CALM      29.62S VSB 1/4
SEDALIA        FOG       47  46  97 E3        29.62F VSB 1/4
WARSAW         NOT AVBL
CHILLICOTHE      N/A     43  43 100 CALM      29.63F
KIRKSVILLE     FOG       40  40 100 CALM      29.62S VSB 1/4

$$

MOZ041-047>049-056>058-063>065-088>090-097-200800-
...EASTERN AND SOUTHERN MISSOURI...

CITY           SKY/WX    TMP DP  RH WIND       PRES   REMARKS
ST. LOUIS INTL NOT AVBL
SPIRIT OF STL  FOG       45  45 100 CALM      29.60S VSB 1/4
COLUMBIA       FOG       46  46 100 CALM      29.61F VSB 1/4
JEFFERSON CITY CLOUDY    47  46  97 CALM      29.62F
ROLLA          FOG       48  48 100 SW5       29.60F VSB 1/4
OSAGE BEACH    FOG       48  48 100 E3        29.61F VSB 1/4
SPRINGFIELD    FOG       47  47 100 S6        29.61S VSB 1/4
BRANSON        FOG       39  39 100 CALM      29.63F VSB 1/4
JOPLIN         CLOUDY    50  48  93 SE3       29.61S
WEST PLAINS    CLOUDY    49  48  97 SW6       29.65S

$$

IAZ060-094-KSZ022-034>040-054-083-096-NEZ052-066-093-200800-
...KANSAS...SOUTHEAST NEBRASKA AND IOWA...

CITY           SKY/WX    TMP DP  RH WIND       PRES   REMARKS
TOPEKA         FOG       45  43  93 CALM      29.59F VSB 1/4
MANHATTAN      FOG       44  44 100 CALM      29.59R VSB 1/4
EMPORIA        FOG       42  42 100 NE5       29.57F VSB 1/2
CHANUTE        CLOUDY    48  45  89 SE7       29.58F
WICHITA        FOG       43  43 100 NE5       29.54F VSB 1/4
OMAHA          CLOUDY    39  36  89 CALM      29.59F FOG
LINCOLN        CLOUDY    40  39  97 CALM      29.60S FOG
FALLS CITY     FOG       41  41 100 CALM      29.59F VSB 1/4
LAMONI         FOG       38  37  97 CALM      29.61S VSB 1/2
DES MOINES     FOG       37  36  96 CALM      29.61F VSB 1/4

$$




USA.gov is the U.S. government's official web portal to all federal, state and local government web resources and services.